[[{"header":{"parameterUnit":"m.s-1","parameterCategory":1,"la1":30.2991,"la2":30.254,"lo1":-89.0895,"lo2":-89.0444,"dy":0.0017,"dx":0.0017,"nx":28,"ny":28,"refTime":"2025-07-21T09:00:00:Z","depth":0,"parameterNumber":2,"parameterNumberName":"U-component_of_WINDS"},"data":[0,0,0,0,0,0,0,0,0,0,0,0,0,0,0,0,0,0,0,0,0,0,0,0,0,0,0,0,0,0,0,0,0,0,0,0,0,0,0,0,0,0,0,0,0,0,0,0,0,0,0,0,0,0,0,0,0,0,4.1788,4.179,0,4.1914,4.1916,4.1917,4.1833,4.1829,4.1825,4.1822,4.1955,4.1962,4.1969,0,0,0,0,0,0,0,0,0,0,0,0,0,4.1478,4.1484,4.1788,4.179,4.1791,4.1914,4.1916,4.1917,4.1834,4.1829,4.1824,4.182,4.1953,4.1961,4.197,0,0,0,0,0,0,0,0,0,0,0,0,0,4.1609,4.1486,4.1788,4.1764,4.1763,4.1914,4.1916,4.1918,4.1835,4.1829,4.1823,4.1818,4.195,4.196,4.1971,4.2153,0,0,4.2004,4.2008,0,0,0,0,0,0,0,0,4.1602,4.1621,4.1766,4.1766,4.1765,4.1852,4.1855,4.1997,4.1836,4.1808,4.1822,4.1815,4.1926,4.1938,4.1975,4.2159,4.2165,4.2005,4.2011,4.2016,4.2019,0,0,0,0,0,0,0,4.1593,4.1615,4.1838,4.1768,4.1768,4.1748,4.176,4.1882,4.1898,4.181,4.1804,4.182,4.1924,4.1964,4.1977,4.2167,4.2004,4.2014,4.202,4.2025,4.2506,4.2512,0,0,0,0,0,0,4.1585,4.1608,4.1834,4.1842,4.1667,4.1758,4.1772,4.183,4.1896,4.1901,4.1825,4.1815,4.1949,4.1965,4.1981,4.2198,4.2016,4.2026,4.2032,4.25,4.2508,4.2515,0,0,0,0,0,0,4.1579,4.1606,4.1829,4.1723,4.175,4.177,4.1836,4.1836,4.1875,4.1907,4.191,4.1862,4.1945,4.1966,4.211,4.2202,4.2031,4.204,4.2493,4.2502,4.2511,4.2634,0,0,0,0,0,0,4.157,4.1604,4.1673,4.1725,4.1756,4.1955,4.1841,4.1842,4.1894,4.1883,4.1943,4.1948,4.1942,4.2095,4.2121,4.2213,4.2049,4.2484,4.2497,4.2508,4.2622,4.2646,4.2667,0,0,0,0,0,4.156,4.1704,4.1677,4.1705,4.1842,4.1961,4.1978,4.1967,4.1901,4.1971,4.1991,4.1946,4.2187,4.211,4.2139,4.2236,4.2479,4.2493,4.2507,4.2611,4.2641,4.2667,0,0,0,0,0,0,4.1664,4.171,4.1681,4.1846,4.19,4.1946,4.2034,4.2,4.2074,4.2061,4.2046,4.206,4.2211,4.2238,4.2151,4.2415,4.2323,4.2344,4.2392,4.2421,4.2443,4.2434,4.2058,0,0,0,0,0,4.1706,4.1797,4.1833,4.1975,4.2004,4.2014,4.2066,4.2052,4.2108,4.213,4.2161,4.2218,4.2306,4.2365,4.2448,4.2625,4.2637,4.2706,4.2729,4.2747,4.2766,4.286,4.2891,4.2562,4.2562,4.2561,0,0,4.1794,4.183,4.1889,4.1997,4.2037,4.2133,4.2034,4.214,4.2211,4.2147,4.2284,4.2309,4.2371,4.2532,4.2605,4.2559,4.2859,4.2766,4.278,4.2788,4.2878,4.2909,4.2937,4.2571,4.257,4.2568,0,0,4.2003,4.204,4.2162,4.2203,4.2264,4.227,4.23,4.2351,4.2365,4.2502,4.2456,4.2541,4.2693,4.2739,4.2783,4.3008,4.2969,4.3036,4.3155,4.3248,4.3274,4.3297,4.3377,4.3406,4.3054,4.3054,4.3054,0,4.2105,4.2246,4.2229,4.2338,4.2387,4.2332,4.2455,4.2497,4.2583,4.2619,4.2566,4.2756,4.2794,4.2964,4.3019,4.3057,4.309,4.3029,4.3271,4.3294,4.3315,4.3391,4.3421,4.3062,4.3061,4.306,4.3059,0,4.2368,4.2467,4.2558,4.264,4.27,4.2816,4.2817,4.2879,4.2861,4.2873,4.3013,4.3056,4.3147,4.3187,4.317,4.3355,4.3325,4.3273,4.3179,4.3354,4.3426,4.3455,4.3073,4.307,4.3068,4.3066,0,0,4.2647,4.2717,4.2751,4.2788,4.2851,4.2927,4.304,4.3127,4.3181,4.3242,4.3337,4.3467,4.3418,4.3467,4.3456,4.3537,4.3712,4.3474,4.3475,4.3516,4.3917,4.3956,4.399,4.3686,4.3692,4.3696,4.3912,0,4.2859,4.3055,4.3043,4.3228,4.3319,4.3267,4.3366,4.3416,4.343,4.3509,4.3525,4.3617,4.3546,4.3575,4.3654,4.3674,4.3792,4.3658,4.3775,4.3779,4.3761,4.4028,4.4069,4.4271,4.394,4.3944,4.3948,0,4.3133,4.3201,4.3395,4.3443,4.348,4.3569,4.3647,4.3724,4.3779,4.3784,4.3838,4.3813,4.3928,4.3832,4.3991,4.39,4.3947,4.3964,4.3972,4.3982,4.3874,4.4045,4.4335,4.4365,4.3992,4.3988,4.3985,0,4.3317,4.3457,4.3591,4.3623,4.3683,4.3746,4.3775,4.3824,4.3877,4.3946,4.3979,4.4062,4.4107,4.4171,4.4169,4.4099,4.433,4.4234,4.4337,4.4337,4.4388,4.4385,4.469,4.4419,4.4419,4.4418,4.4418,0,4.3555,4.3675,4.3673,4.3756,4.3889,4.3874,4.4007,4.4028,4.4073,4.4158,4.412,4.4201,4.4193,4.4276,4.4275,4.4407,4.4428,4.4435,4.4433,4.4438,4.4437,4.4469,4.4455,4.4426,4.4425,4.4423,4.4422,0,4.3782,4.3786,4.3928,4.3972,4.3986,4.4082,4.412,4.4199,4.4208,4.4318,4.4343,4.4359,4.4454,4.4458,4.4568,4.4568,4.4727,4.471,4.4708,4.4705,4.4808,4.4798,4.5143,4.5188,4.4889,4.4892,4.4894,0,4.3934,4.4025,4.4078,4.4132,4.4163,4.4251,4.4304,4.4293,4.435,4.4419,4.4489,4.458,4.4652,4.4807,4.483,4.4914,4.4898,4.5013,4.4911,4.4912,4.4899,4.4894,4.4903,4.5033,4.5037,4.5039,4.5042,0,4.4202,4.4199,4.4276,4.4354,4.4418,4.4479,4.4536,4.4583,4.4579,4.4645,4.474,4.4796,4.4908,4.4999,4.508,4.511,4.5076,4.5073,4.5102,4.5108,4.5103,4.5106,4.4762,4.5066,4.5063,4.5062,4.506,4.5059,4.4396,4.4474,4.4523,4.461,4.4651,4.4705,4.478,4.4799,4.4878,4.4966,4.4955,4.5062,4.5115,4.522,4.5256,4.534,4.5301,4.5342,4.5352,4.5363,4.5373,4.5089,4.5355,4.5354,4.5354,4.5353,4.5353,0,4.4662,4.4691,4.4771,4.485,4.4919,4.4879,4.4939,4.5,4.5093,4.5144,4.5215,4.5326,4.5413,4.5442,4.5527,4.5589,4.5575,4.5612,4.5607,4.5614,4.5404,4.5371,4.5621,4.5621,4.5621,4.5621,4.5621,4.5621,4.4809,4.4938,4.4941,4.509,4.5118,4.5221,4.5259,4.5308,4.5349,4.5473,4.5545,4.5562,4.5604,4.5692,4.5771,4.5777,4.581,4.5853,4.5853,4.5656,4.5629,4.5604,4.5572,4.5861,4.5861,4.6056,4.6058,4.606]},{"header":{"parameterUnit":"m.s-1","parameterCategory":1,"la1":30.2991,"la2":30.254,"lo1":-89.0895,"lo2":-89.0444,"dy":0.0017,"dx":0.0017,"nx":28,"ny":28,"refTime":"2025-07-21T09:00:00:Z","depth":0,"parameterNumber":3,"parameterNumberName":"V-component_of_WINDS"},"data":[0,0,0,0,0,0,0,0,0,0,0,0,0,0,0,0,0,0,0,0,0,0,0,0,0,0,0,0,0,0,0,0,0,0,0,0,0,0,0,0,0,0,0,0,0,0,0,0,0,0,0,0,0,0,0,0,0,0,0.3372,0.3372,0,0.3389,0.3389,0.3389,0.3378,0.3377,0.3377,0.3376,0.3394,0.3395,0.3396,0,0,0,0,0,0,0,0,0,0,0,0,0,0.3329,0.333,0.3372,0.3372,0.3372,0.3389,0.3389,0.339,0.3378,0.3377,0.3376,0.3376,0.3394,0.3395,0.3396,0,0,0,0,0,0,0,0,0,0,0,0,0,0.3347,0.333,0.3372,0.3368,0.3368,0.3389,0.3389,0.339,0.3378,0.3377,0.3376,0.3376,0.3393,0.3395,0.3396,0.3421,0,0,0.3401,0.3401,0,0,0,0,0,0,0,0,0.3346,0.3348,0.3369,0.3369,0.3369,0.338,0.3381,0.34,0.3378,0.3374,0.3376,0.3375,0.339,0.3392,0.3397,0.3422,0.3423,0.3401,0.3402,0.3402,0.3403,0,0,0,0,0,0,0,0.3345,0.3348,0.3379,0.3369,0.3369,0.3366,0.3368,0.3384,0.3387,0.3375,0.3374,0.3376,0.339,0.3396,0.3397,0.3423,0.3401,0.3402,0.3403,0.3404,0.3469,0.347,0,0,0,0,0,0,0.3344,0.3347,0.3378,0.3379,0.3355,0.3367,0.3369,0.3377,0.3386,0.3387,0.3377,0.3375,0.3393,0.3396,0.3398,0.3427,0.3402,0.3404,0.3405,0.3468,0.3469,0.347,0,0,0,0,0,0,0.3343,0.3347,0.3377,0.3363,0.3366,0.3369,0.3378,0.3378,0.3384,0.3388,0.3388,0.3382,0.3393,0.3396,0.3415,0.3428,0.3404,0.3406,0.3467,0.3469,0.347,0.3487,0,0,0,0,0,0,0.3342,0.3346,0.3356,0.3363,0.3367,0.3395,0.3379,0.3379,0.3386,0.3385,0.3393,0.3393,0.3392,0.3413,0.3417,0.343,0.3407,0.3466,0.3468,0.3469,0.3485,0.3489,0.3492,0,0,0,0,0,0.334,0.336,0.3357,0.336,0.3379,0.3396,0.3398,0.3396,0.3387,0.3397,0.3399,0.3393,0.3426,0.3415,0.3419,0.3433,0.3465,0.3467,0.3469,0.3484,0.3488,0.3492,0,0,0,0,0,0,0.3355,0.3361,0.3357,0.338,0.3388,0.3394,0.3406,0.3401,0.3411,0.3409,0.3407,0.3409,0.3429,0.3433,0.3421,0.3457,0.3444,0.3447,0.3454,0.3458,0.3461,0.346,0.3408,0,0,0,0,0,0.3361,0.3374,0.3379,0.3399,0.3402,0.3404,0.3411,0.3409,0.3416,0.3419,0.3423,0.343,0.3442,0.345,0.3461,0.3486,0.3487,0.3497,0.35,0.3502,0.3505,0.3517,0.3522,0.3477,0.3477,0.3477,0,0,0.3374,0.3379,0.3387,0.3402,0.3407,0.342,0.3406,0.3421,0.343,0.3421,0.344,0.3443,0.3451,0.3473,0.3483,0.3477,0.3517,0.3505,0.3507,0.3508,0.352,0.3524,0.3528,0.3478,0.3478,0.3477,0,0,0.3404,0.3409,0.3426,0.3431,0.3439,0.344,0.3444,0.345,0.3452,0.3471,0.3464,0.3475,0.3496,0.3502,0.3507,0.3538,0.3533,0.3542,0.3558,0.3571,0.3574,0.3577,0.3588,0.3592,0.3544,0.3544,0.3544,0,0.3419,0.3438,0.3436,0.345,0.3457,0.3448,0.3466,0.3471,0.3482,0.3487,0.348,0.3505,0.351,0.3532,0.354,0.3545,0.3549,0.3541,0.3574,0.3577,0.358,0.359,0.3594,0.3545,0.3545,0.3545,0.3545,0,0.3456,0.347,0.3482,0.3493,0.3501,0.3517,0.3516,0.3524,0.3521,0.3522,0.3541,0.3546,0.3558,0.3563,0.3561,0.3586,0.3582,0.3574,0.3561,0.3585,0.3595,0.3599,0.3547,0.3546,0.3546,0.3546,0,0,0.3497,0.3505,0.351,0.3515,0.3522,0.3533,0.3548,0.3559,0.3566,0.3574,0.3586,0.3603,0.3596,0.3603,0.36,0.3611,0.3635,0.3602,0.3602,0.3608,0.3662,0.3668,0.3673,0.3631,0.3632,0.3632,0.3662,0,0.3528,0.3554,0.3552,0.3577,0.3589,0.358,0.3594,0.36,0.3601,0.3611,0.3612,0.3624,0.3614,0.3618,0.3628,0.363,0.3646,0.3628,0.3643,0.3643,0.3641,0.3678,0.3684,0.3712,0.3665,0.3666,0.3666,0,0.3567,0.3575,0.3602,0.3607,0.3612,0.3624,0.3633,0.3643,0.365,0.365,0.3656,0.3652,0.3667,0.3653,0.3674,0.3661,0.3667,0.3669,0.367,0.3672,0.3657,0.3681,0.372,0.3725,0.3672,0.3672,0.3671,0,0.3594,0.3612,0.363,0.3634,0.3641,0.3649,0.3652,0.3658,0.3664,0.3673,0.3677,0.3687,0.3693,0.37,0.3699,0.3689,0.3719,0.3706,0.372,0.372,0.3727,0.3727,0.3769,0.373,0.373,0.373,0.373,0,0.3628,0.3645,0.3642,0.3654,0.3671,0.3668,0.3686,0.3688,0.3692,0.3704,0.3697,0.3707,0.3704,0.3715,0.3713,0.373,0.3733,0.3733,0.3733,0.3734,0.3734,0.3738,0.3736,0.3731,0.3731,0.3731,0.3731,0,0.3662,0.3661,0.368,0.3684,0.3686,0.3699,0.3702,0.3713,0.3713,0.3727,0.373,0.373,0.3742,0.3741,0.3754,0.3753,0.3774,0.3771,0.3772,0.3771,0.3786,0.3784,0.3832,0.3838,0.3796,0.3796,0.3796,0,0.3684,0.3697,0.3702,0.3709,0.3712,0.3724,0.373,0.3727,0.3734,0.3741,0.3751,0.3762,0.377,0.3789,0.3791,0.3801,0.3798,0.3814,0.38,0.38,0.3798,0.3798,0.3799,0.3817,0.3817,0.3818,0.3818,0,0.3724,0.3722,0.3732,0.3741,0.3749,0.3757,0.3763,0.3769,0.3766,0.3774,0.3786,0.3793,0.3806,0.3817,0.3826,0.3829,0.3823,0.3822,0.3826,0.3828,0.3828,0.3828,0.378,0.3822,0.3821,0.3821,0.3821,0.3821,0.3752,0.3763,0.3768,0.3779,0.3783,0.3789,0.3799,0.38,0.3809,0.382,0.3817,0.383,0.3835,0.3847,0.3851,0.3861,0.3855,0.3861,0.3862,0.3863,0.3865,0.3826,0.3862,0.3862,0.3862,0.3862,0.3862,0,0.3791,0.3794,0.3804,0.3813,0.3821,0.3814,0.3821,0.3829,0.384,0.3845,0.3854,0.3867,0.3877,0.3879,0.3889,0.3896,0.3894,0.3899,0.3899,0.3899,0.387,0.3866,0.3901,0.3901,0.3901,0.3901,0.3901,0.3901,0.3813,0.383,0.3829,0.3848,0.385,0.3863,0.3867,0.3872,0.3877,0.3892,0.39,0.3901,0.3905,0.3914,0.3923,0.3923,0.3927,0.3934,0.3933,0.3905,0.3901,0.3898,0.3894,0.3934,0.3935,0.3961,0.3962,0.3962]}]]